Location: Bonningues
(50.7927°N, 2.0150°E)
Time: 08:20:42
(UTC+00:00)

Cosmos 2366 rocket - Pass Details

Date: 08 August 2020
Orbit: 955 x 997 km, 82.9° (Epoch: 26 September)

Event Time Altitude Azimuth Distance (km) Brightness Sun altitude
Rises 19:48:16 0° 189° (S) 3,673 6.8 -4.1°
Reaches altitude 10° 19:50:46 10° 190° (S) 2,723 6.1 -4.4°
Maximum altitude 19:57:02 86° 278° (W) 981 4.1 -5.3°
Drops below altitude 10° 20:03:16 10° 9° (N) 2,713 6.7 -6.1°
Sets 20:05:46 0° 10° (N) 3,659 7.4 -6.4°
